contact:dominique.lefevre@mio.osupytheas.fr, maurice.libes@osupytheas.fr, didier.mallarino@osupytheas.fr
Project:EMSO http://www.emso-fr.org/EMSO-France
Depth: 2436.0 m
Title:EMSO Ligure Ouest : Data MII capteur MICROCAT
DateTime_Computer,Latitude,Longitude,Temperature,Conductivity,Pressure,DateTime_Instrument
DateTime_Computer,Latitude,Longitude,degC,S m-1,dbar,DateTime_Instrument
2020-04-30T00:00:45Z,42.805,6.029,13.3009,4.59998,2470.147,2020-4-30T02:01:26Z
2020-04-30T00:03:48Z,42.805,6.029,13.3025,4.59993,2470.133,2020-4-30T02:04:29Z
2020-04-30T00:06:52Z,42.805,6.029,13.3011,4.59990,2470.156,2020-4-30T02:07:32Z
2020-04-30T00:09:55Z,42.805,6.029,13.3002,4.59990,2470.156,2020-4-30T02:10:36Z
2020-04-30T00:12:58Z,42.805,6.029,13.2995,4.59996,2470.171,2020-4-30T02:13:39Z
2020-04-30T00:16:02Z,42.805,6.029,13.2993,4.59993,2470.133,2020-4-30T02:16:42Z
2020-04-30T00:19:05Z,42.805,6.029,13.2988,4.60009,2470.18,2020-4-30T02:19:46Z
2020-04-30T00:22:08Z,42.805,6.029,13.3021,4.60000,2470.156,2020-4-30T02:22:49Z
2020-04-30T00:25:11Z,42.805,6.029,13.2990,4.60011,2470.18,2020-4-30T02:25:52Z
2020-04-30T00:28:15Z,42.805,6.029,13.3004,4.60005,2470.156,2020-4-30T02:28:55Z
2020-04-30T00:31:18Z,42.805,6.029,13.3004,4.60007,2470.147,2020-4-30T02:31:59Z
2020-04-30T00:34:21Z,42.805,6.029,13.2997,4.60000,2470.147,2020-4-30T02:35:02Z
2020-04-30T00:37:24Z,42.805,6.029,13.3014,4.59993,2470.133,2020-4-30T02:38:05Z
2020-04-30T00:40:28Z,42.805,6.029,13.3003,4.59994,2470.147,2020-4-30T02:41:08Z
2020-04-30T00:43:31Z,42.805,6.029,13.2997,4.59999,2470.133,2020-4-30T02:44:12Z
2020-04-30T00:46:34Z,42.805,6.029,13.2991,4.59990,2470.156,2020-4-30T02:47:15Z
2020-04-30T00:49:37Z,42.805,6.029,13.2993,4.59993,2470.147,2020-4-30T02:50:18Z
2020-04-30T00:52:41Z,42.805,6.029,13.3012,4.59993,2470.156,2020-4-30T02:53:21Z
2020-04-30T00:55:44Z,42.805,6.029,13.2997,4.59994,2470.171,2020-4-30T02:56:25Z
2020-04-30T00:58:47Z,42.805,6.029,13.2996,4.59999,2470.171,2020-4-30T02:59:28Z
2020-04-30T01:01:51Z,42.805,6.029,13.2990,4.59987,2470.156,2020-4-30T03:02:31Z
2020-04-30T01:04:54Z,42.805,6.029,13.2997,4.59991,2470.156,2020-4-30T03:05:34Z
2020-04-30T01:07:57Z,42.805,6.029,13.3002,4.59993,2470.147,2020-4-30T03:08:38Z
2020-04-30T01:11:00Z,42.805,6.029,13.2998,4.59996,2470.147,2020-4-30T03:11:41Z
2020-04-30T01:14:04Z,42.805,6.029,13.2986,4.59989,2470.133,2020-4-30T03:14:44Z
2020-04-30T01:17:07Z,42.805,6.029,13.2991,4.59991,2470.124,2020-4-30T03:17:47Z
2020-04-30T01:20:10Z,42.805,6.029,13.3001,4.59994,2470.18,2020-4-30T03:20:51Z
2020-04-30T01:23:13Z,42.805,6.029,13.3008,4.59990,2470.147,2020-4-30T03:23:54Z
2020-04-30T01:26:17Z,42.805,6.029,13.3018,4.59996,2470.156,2020-4-30T03:26:57Z
2020-04-30T01:29:20Z,42.805,6.029,13.3004,4.60002,2470.133,2020-4-30T03:30:00Z
2020-04-30T01:32:23Z,42.805,6.029,13.2990,4.59981,2470.147,2020-4-30T03:33:04Z
2020-04-30T01:35:26Z,42.805,6.029,13.2997,4.59989,2470.133,2020-4-30T03:36:07Z
2020-04-30T01:38:29Z,42.805,6.029,13.3001,4.59996,2470.156,2020-4-30T03:39:10Z
2020-04-30T01:41:33Z,42.805,6.029,13.2997,4.59988,2470.171,2020-4-30T03:42:14Z
2020-04-30T01:44:36Z,42.805,6.029,13.2996,4.59993,2470.147,2020-4-30T03:45:17Z
2020-04-30T01:47:39Z,42.805,6.029,13.3011,4.60009,2470.11,2020-4-30T03:48:20Z
2020-04-30T01:50:43Z,42.805,6.029,13.2995,4.59998,2470.133,2020-4-30T03:51:23Z
2020-04-30T01:53:46Z,42.805,6.029,13.2993,4.59996,2470.171,2020-4-30T03:54:26Z
2020-04-30T01:56:49Z,42.805,6.029,13.2997,4.59998,2470.147,2020-4-30T03:57:30Z
2020-04-30T01:59:52Z,42.805,6.029,13.2995,4.60001,2470.1,2020-4-30T04:00:33Z
2020-04-30T02:02:55Z,42.805,6.029,13.3004,4.59996,2470.11,2020-4-30T04:03:36Z
2020-04-30T02:05:59Z,42.805,6.029,13.3003,4.59992,2470.124,2020-4-30T04:06:39Z
2020-04-30T02:09:02Z,42.805,6.029,13.3004,4.59990,2470.147,2020-4-30T04:09:43Z
2020-04-30T02:12:05Z,42.805,6.029,13.2996,4.59996,2470.133,2020-4-30T04:12:46Z
2020-04-30T02:15:08Z,42.805,6.029,13.3001,4.59995,2470.133,2020-4-30T04:15:49Z
2020-04-30T02:18:12Z,42.805,6.029,13.3004,4.59989,2470.11,2020-4-30T04:18:52Z
2020-04-30T02:21:15Z,42.805,6.029,13.3013,4.60006,2470.11,2020-4-30T04:21:56Z
2020-04-30T02:24:18Z,42.805,6.029,13.3000,4.60001,2470.11,2020-4-30T04:24:59Z
2020-04-30T02:27:22Z,42.805,6.029,13.3005,4.59990,2470.11,2020-4-30T04:28:02Z
2020-04-30T02:30:25Z,42.805,6.029,13.2997,4.59999,2470.124,2020-4-30T04:31:06Z
2020-04-30T02:33:28Z,42.805,6.029,13.3000,4.59997,2470.124,2020-4-30T04:34:09Z
2020-04-30T02:36:31Z,42.805,6.029,13.2997,4.59981,2470.133,2020-4-30T04:37:12Z
2020-04-30T02:39:35Z,42.805,6.029,13.2993,4.59996,2470.1,2020-4-30T04:40:15Z
2020-04-30T02:42:38Z,42.805,6.029,13.3010,4.59994,2470.087,2020-4-30T04:43:19Z
2020-04-30T02:45:41Z,42.805,6.029,13.2994,4.59983,2470.11,2020-4-30T04:46:22Z
2020-04-30T02:48:44Z,42.805,6.029,13.2990,4.59994,2470.11,2020-4-30T04:49:25Z
2020-04-30T02:51:48Z,42.805,6.029,13.2989,4.59993,2470.087,2020-4-30T04:52:28Z
2020-04-30T02:54:51Z,42.805,6.029,13.2996,4.59996,2470.087,2020-4-30T04:55:32Z
2020-04-30T02:57:54Z,42.805,6.029,13.3004,4.59994,2470.124,2020-4-30T04:58:35Z
2020-04-30T03:00:57Z,42.805,6.029,13.2996,4.59994,2470.11,2020-4-30T05:01:38Z
2020-04-30T03:04:01Z,42.805,6.029,13.2987,4.59980,2470.1,2020-4-30T05:04:41Z
2020-04-30T03:07:04Z,42.805,6.029,13.2991,4.59996,2470.124,2020-4-30T05:07:45Z
2020-04-30T03:10:07Z,42.805,6.029,13.2995,4.59984,2470.087,2020-4-30T05:10:48Z
2020-04-30T03:13:10Z,42.805,6.029,13.2994,4.59998,2470.147,2020-4-30T05:13:51Z
2020-04-30T03:16:14Z,42.805,6.029,13.2998,4.59992,2470.11,2020-4-30T05:16:54Z
2020-04-30T03:19:17Z,42.805,6.029,13.2996,4.59989,2470.124,2020-4-30T05:19:58Z
2020-04-30T03:22:20Z,42.805,6.029,13.3014,4.60001,2470.11,2020-4-30T05:23:01Z
2020-04-30T03:25:23Z,42.805,6.029,13.2998,4.59993,2470.1,2020-4-30T05:26:04Z
2020-04-30T03:28:27Z,42.805,6.029,13.3009,4.59999,2470.087,2020-4-30T05:29:07Z
2020-04-30T03:31:30Z,42.805,6.029,13.2991,4.59991,2470.11,2020-4-30T05:32:11Z
2020-04-30T03:34:33Z,42.805,6.029,13.2994,4.59991,2470.087,2020-4-30T05:35:14Z
2020-04-30T03:37:36Z,42.805,6.029,13.2999,4.59989,2470.087,2020-4-30T05:38:17Z
2020-04-30T03:40:40Z,42.805,6.029,13.2988,4.59995,2470.077,2020-4-30T05:41:20Z
2020-04-30T03:43:43Z,42.805,6.029,13.3005,4.59988,2470.1,2020-4-30T05:44:24Z
2020-04-30T03:46:46Z,42.805,6.029,13.3007,4.59994,2470.087,2020-4-30T05:47:27Z
2020-04-30T03:49:49Z,42.805,6.029,13.2988,4.59995,2470.087,2020-4-30T05:50:30Z
2020-04-30T03:52:53Z,42.805,6.029,13.2999,4.59988,2470.1,2020-4-30T05:53:33Z
2020-04-30T03:55:56Z,42.805,6.029,13.3000,4.59991,2470.1,2020-4-30T05:56:37Z
2020-04-30T03:58:59Z,42.805,6.029,13.2996,4.59988,2470.053,2020-4-30T05:59:40Z
2020-04-30T04:02:02Z,42.805,6.029,13.2996,4.59992,2470.063,2020-4-30T06:02:43Z
2020-04-30T04:05:06Z,42.805,6.029,13.2993,4.59998,2470.1,2020-4-30T06:05:46Z
2020-04-30T04:08:09Z,42.805,6.029,13.2989,4.59990,2470.1,2020-4-30T06:08:50Z
2020-04-30T04:11:12Z,42.805,6.029,13.2991,4.59984,2470.063,2020-4-30T06:11:53Z
2020-04-30T04:14:15Z,42.805,6.029,13.2992,4.59989,2470.077,2020-4-30T06:14:56Z
2020-04-30T04:17:19Z,42.805,6.029,13.2995,4.59991,2470.087,2020-4-30T06:17:59Z
2020-04-30T04:20:22Z,42.805,6.029,13.3004,4.59997,2470.1,2020-4-30T06:21:03Z
2020-04-30T04:23:25Z,42.805,6.029,13.2993,4.59988,2470.063,2020-4-30T06:24:06Z
2020-04-30T04:26:28Z,42.805,6.029,13.2986,4.59996,2470.1,2020-4-30T06:27:09Z
2020-04-30T04:29:32Z,42.805,6.029,13.2992,4.59991,2470.077,2020-4-30T06:30:12Z
2020-04-30T04:32:35Z,42.805,6.029,13.2993,4.59999,2470.077,2020-4-30T06:33:15Z
2020-04-30T04:35:38Z,42.805,6.029,13.3003,4.59993,2470.087,2020-4-30T06:36:19Z
2020-04-30T04:38:41Z,42.805,6.029,13.2998,4.60000,2470.063,2020-4-30T06:39:22Z
2020-04-30T04:41:44Z,42.805,6.029,13.2996,4.59991,2470.053,2020-4-30T06:42:25Z
2020-04-30T04:44:48Z,42.805,6.029,13.2994,4.60001,2470.053,2020-4-30T06:45:28Z
2020-04-30T04:47:51Z,42.805,6.029,13.2996,4.59990,2470.077,2020-4-30T06:48:32Z
2020-04-30T04:50:54Z,42.805,6.029,13.2993,4.59996,2470.04,2020-4-30T06:51:35Z
2020-04-30T04:53:58Z,42.805,6.029,13.2990,4.60009,2470.1,2020-4-30T06:54:38Z
2020-04-30T04:57:01Z,42.805,6.029,13.2991,4.59992,2470.087,2020-4-30T06:57:42Z
2020-04-30T05:00:04Z,42.805,6.029,13.3000,4.59994,2470.04,2020-4-30T07:00:45Z
2020-04-30T05:03:07Z,42.805,6.029,13.2987,4.59986,2470.053,2020-4-30T07:03:48Z
2020-04-30T05:06:11Z,42.805,6.029,13.2993,4.59993,2470.063,2020-4-30T07:06:51Z
2020-04-30T05:09:14Z,42.805,6.029,13.3004,4.59995,2470.063,2020-4-30T07:09:55Z
2020-04-30T05:12:17Z,42.805,6.029,13.3013,4.59997,2470.053,2020-4-30T07:12:58Z
2020-04-30T05:15:20Z,42.805,6.029,13.2998,4.59986,2470.077,2020-4-30T07:16:01Z
2020-04-30T05:18:24Z,42.805,6.029,13.3015,4.59999,2470.04,2020-4-30T07:19:04Z
2020-04-30T05:21:27Z,42.805,6.029,13.2999,4.59991,2470.063,2020-4-30T07:22:08Z
2020-04-30T05:24:30Z,42.805,6.029,13.2992,4.59991,2470.087,2020-4-30T07:25:11Z
2020-04-30T05:27:34Z,42.805,6.029,13.2993,4.59991,2470.077,2020-4-30T07:28:14Z
2020-04-30T05:30:37Z,42.805,6.029,13.3000,4.59985,2470.087,2020-4-30T07:31:17Z
2020-04-30T05:33:40Z,42.805,6.029,13.2993,4.59988,2470.053,2020-4-30T07:34:21Z
2020-04-30T05:36:43Z,42.805,6.029,13.3009,4.60000,2470.063,2020-4-30T07:37:24Z
2020-04-30T05:39:47Z,42.805,6.029,13.3005,4.59992,2470.03,2020-4-30T07:40:27Z
2020-04-30T05:42:50Z,42.805,6.029,13.2994,4.59990,2470.04,2020-4-30T07:43:31Z
2020-04-30T05:45:53Z,42.805,6.029,13.2992,4.59991,2470.077,2020-4-30T07:46:34Z
2020-04-30T05:48:56Z,42.805,6.029,13.3000,4.60003,2470.077,2020-4-30T07:49:37Z
2020-04-30T05:52:00Z,42.805,6.029,13.3000,4.59998,2470.04,2020-4-30T07:52:40Z
2020-04-30T05:55:03Z,42.805,6.029,13.3004,4.59992,2470.04,2020-4-30T07:55:44Z
2020-04-30T05:58:06Z,42.805,6.029,13.2994,4.60001,2470.04,2020-4-30T07:58:47Z
2020-04-30T06:01:09Z,42.805,6.029,13.3004,4.59988,2470.053,2020-4-30T08:01:50Z
2020-04-30T06:04:13Z,42.805,6.029,13.2999,4.59994,2470.053,2020-4-30T08:04:53Z
2020-04-30T06:07:16Z,42.805,6.029,13.2987,4.59996,2470.04,2020-4-30T08:07:57Z
2020-04-30T06:10:19Z,42.805,6.029,13.2998,4.59995,2470.04,2020-4-30T08:11:00Z
2020-04-30T06:13:22Z,42.805,6.029,13.2998,4.59996,2470.053,2020-4-30T08:14:03Z
2020-04-30T06:16:26Z,42.805,6.029,13.2994,4.59988,2470.017,2020-4-30T08:17:06Z
2020-04-30T06:19:29Z,42.805,6.029,13.3014,4.59990,2470.04,2020-4-30T08:20:10Z
2020-04-30T06:22:32Z,42.805,6.029,13.3008,4.60001,2470.03,2020-4-30T08:23:13Z
2020-04-30T06:25:35Z,42.805,6.029,13.3001,4.59982,2470.053,2020-4-30T08:26:16Z
2020-04-30T06:28:39Z,42.805,6.029,13.2991,4.59996,2470.03,2020-4-30T08:29:19Z
2020-04-30T06:31:42Z,42.805,6.029,13.3008,4.59997,2470.04,2020-4-30T08:32:23Z
2020-04-30T06:34:45Z,42.805,6.029,13.3001,4.59991,2470.04,2020-4-30T08:35:26Z
2020-04-30T06:37:48Z,42.805,6.029,13.3000,4.59992,2470.017,2020-4-30T08:38:29Z
2020-04-30T06:40:52Z,42.805,6.029,13.2995,4.60000,2470.063,2020-4-30T08:41:32Z
2020-04-30T06:43:55Z,42.805,6.029,13.2998,4.59996,2470.017,2020-4-30T08:44:36Z
2020-04-30T06:46:58Z,42.805,6.029,13.2999,4.59992,2470.017,2020-4-30T08:47:39Z
2020-04-30T06:50:01Z,42.805,6.029,13.3005,4.59983,2470.03,2020-4-30T08:50:42Z
2020-04-30T06:53:05Z,42.805,6.029,13.2991,4.59996,2470.03,2020-4-30T08:53:45Z
2020-04-30T06:56:08Z,42.805,6.029,13.2997,4.60009,2470.007,2020-4-30T08:56:49Z
2020-04-30T06:59:11Z,42.805,6.029,13.2996,4.59990,2470.03,2020-4-30T08:59:52Z
2020-04-30T07:02:14Z,42.805,6.029,13.2991,4.59988,2470.04,2020-4-30T09:02:55Z
2020-04-30T07:05:18Z,42.805,6.029,13.3016,4.59999,2470.053,2020-4-30T09:05:58Z
2020-04-30T07:08:21Z,42.805,6.029,13.2998,4.59992,2470.007,2020-4-30T09:09:02Z
2020-04-30T07:11:24Z,42.805,6.029,13.3004,4.60003,2470.03,2020-4-30T09:12:05Z
2020-04-30T07:14:27Z,42.805,6.029,13.3000,4.60003,2470.017,2020-4-30T09:15:08Z
2020-04-30T07:17:31Z,42.805,6.029,13.2999,4.59998,2470.003,2020-4-30T09:18:11Z
2020-04-30T07:20:34Z,42.805,6.029,13.3006,4.60003,2469.993,2020-4-30T09:21:15Z
2020-04-30T07:23:37Z,42.805,6.029,13.3009,4.59996,2469.993,2020-4-30T09:24:18Z
2020-04-30T07:26:40Z,42.805,6.029,13.2990,4.59989,2470.017,2020-4-30T09:27:21Z
2020-04-30T07:29:44Z,42.805,6.029,13.3003,4.59995,2469.993,2020-4-30T09:30:24Z
2020-04-30T07:32:47Z,42.805,6.029,13.2996,4.60006,2470.053,2020-4-30T09:33:28Z
2020-04-30T07:35:50Z,42.805,6.029,13.3008,4.59987,2470.04,2020-4-30T09:36:31Z
2020-04-30T07:38:53Z,42.805,6.029,13.3003,4.59998,2470.017,2020-4-30T09:39:34Z
2020-04-30T07:41:57Z,42.805,6.029,13.3009,4.60009,2469.993,2020-4-30T09:42:38Z
2020-04-30T07:45:00Z,42.805,6.029,13.3019,4.60015,2470.03,2020-4-30T09:45:41Z
2020-04-30T07:48:03Z,42.805,6.029,13.2994,4.59993,2470.017,2020-4-30T09:48:44Z
2020-04-30T07:51:07Z,42.805,6.029,13.3019,4.59999,2470.017,2020-4-30T09:51:47Z
2020-04-30T07:54:10Z,42.805,6.029,13.3004,4.59988,2470.03,2020-4-30T09:54:51Z
2020-04-30T07:57:13Z,42.805,6.029,13.2996,4.59990,2470.04,2020-4-30T09:57:54Z
2020-04-30T08:00:16Z,42.805,6.029,13.2993,4.60004,2470.017,2020-4-30T10:00:57Z
2020-04-30T08:03:19Z,42.805,6.029,13.3024,4.59994,2470.04,2020-4-30T10:04:00Z
2020-04-30T08:06:23Z,42.805,6.029,13.3006,4.60011,2470.03,2020-4-30T10:07:03Z
2020-04-30T08:09:26Z,42.805,6.029,13.3011,4.60021,2470.017,2020-4-30T10:10:07Z
2020-04-30T08:12:29Z,42.805,6.029,13.3037,4.60014,2470.017,2020-4-30T10:13:10Z
2020-04-30T08:15:32Z,42.805,6.029,13.3011,4.60008,2470.053,2020-4-30T10:16:13Z
2020-04-30T08:18:36Z,42.805,6.029,13.2993,4.60009,2470.017,2020-4-30T10:19:16Z
2020-04-30T08:21:39Z,42.805,6.029,13.3010,4.60019,2470.03,2020-4-30T10:22:20Z
2020-04-30T08:24:42Z,42.805,6.029,13.3019,4.59999,2470.04,2020-4-30T10:25:23Z
2020-04-30T08:27:45Z,42.805,6.029,13.3004,4.59996,2470.04,2020-4-30T10:28:26Z
2020-04-30T08:30:49Z,42.805,6.029,13.3022,4.60014,2470.007,2020-4-30T10:31:29Z
2020-04-30T08:33:52Z,42.805,6.029,13.3004,4.59999,2470.03,2020-4-30T10:34:33Z
2020-04-30T08:36:55Z,42.805,6.029,13.3020,4.60026,2470.04,2020-4-30T10:37:36Z
2020-04-30T08:39:58Z,42.805,6.029,13.2998,4.60017,2470.017,2020-4-30T10:40:39Z
2020-04-30T08:43:02Z,42.805,6.029,13.2998,4.60011,2470.04,2020-4-30T10:43:42Z
2020-04-30T08:46:05Z,42.805,6.029,13.3025,4.59998,2470.017,2020-4-30T10:46:46Z
2020-04-30T08:49:08Z,42.805,6.029,13.2994,4.60009,2470.04,2020-4-30T10:49:49Z
2020-04-30T08:52:12Z,42.805,6.029,13.3019,4.59991,2470.04,2020-4-30T10:52:52Z
2020-04-30T08:55:15Z,42.805,6.029,13.3006,4.60008,2470.04,2020-4-30T10:55:56Z
2020-04-30T08:58:18Z,42.805,6.029,13.3022,4.59991,2470.053,2020-4-30T10:58:59Z
2020-04-30T09:01:21Z,42.805,6.029,13.3008,4.59991,2470.03,2020-4-30T11:02:02Z
2020-04-30T09:04:25Z,42.805,6.029,13.3009,4.59998,2470.04,2020-4-30T11:05:06Z
2020-04-30T09:07:28Z,42.805,6.029,13.2986,4.59990,2470.017,2020-4-30T11:08:09Z
2020-04-30T09:10:31Z,42.805,6.029,13.3007,4.60006,2470.017,2020-4-30T11:11:12Z
2020-04-30T09:13:34Z,42.805,6.029,13.2996,4.60006,2470.053,2020-4-30T11:14:15Z
2020-04-30T09:16:38Z,42.805,6.029,13.2997,4.60014,2470.04,2020-4-30T11:17:18Z
2020-04-30T09:19:41Z,42.805,6.029,13.2982,4.60034,2470.017,2020-4-30T11:20:22Z
2020-04-30T09:22:44Z,42.805,6.029,13.3006,4.60006,2470.017,2020-4-30T11:23:25Z
2020-04-30T09:25:48Z,42.805,6.029,13.3004,4.59991,2470.053,2020-4-30T11:26:28Z
2020-04-30T09:28:51Z,42.805,6.029,13.2998,4.60000,2470.053,2020-4-30T11:29:32Z
2020-04-30T09:31:55Z,42.805,6.029,13.2998,4.60090,2470.007,2020-4-30T11:32:35Z
2020-04-30T09:34:58Z,42.805,6.029,13.3009,4.60020,2470.053,2020-4-30T11:35:38Z
2020-04-30T09:38:01Z,42.805,6.029,13.3004,4.60033,2470.053,2020-4-30T11:38:42Z
2020-04-30T09:41:04Z,42.805,6.029,13.3013,4.60025,2470.017,2020-4-30T11:41:45Z
2020-04-30T09:44:08Z,42.805,6.029,13.2993,4.60037,2470.04,2020-4-30T11:44:48Z
2020-04-30T09:47:11Z,42.805,6.029,13.3009,4.60001,2470.1,2020-4-30T11:47:52Z
2020-04-30T09:50:14Z,42.805,6.029,13.3003,4.60026,2470.04,2020-4-30T11:50:55Z
2020-04-30T09:53:17Z,42.805,6.029,13.2982,4.60033,2470.053,2020-4-30T11:53:58Z
2020-04-30T09:56:21Z,42.805,6.029,13.3033,4.59996,2470.03,2020-4-30T11:57:01Z
2020-04-30T09:59:24Z,42.805,6.029,13.3014,4.60045,2470.017,2020-4-30T12:00:05Z
2020-04-30T10:02:27Z,42.805,6.029,13.3041,4.60050,2470.03,2020-4-30T12:03:08Z
2020-04-30T10:05:30Z,42.805,6.029,13.3032,4.60039,2470.017,2020-4-30T12:06:11Z
2020-04-30T10:08:34Z,42.805,6.029,13.3038,4.60070,2470.04,2020-4-30T12:09:14Z
2020-04-30T10:11:37Z,42.805,6.029,13.3020,4.60037,2470.04,2020-4-30T12:12:18Z
2020-04-30T10:14:40Z,42.805,6.029,13.3037,4.60011,2470.03,2020-4-30T12:15:21Z
2020-04-30T10:17:43Z,42.805,6.029,13.2999,4.60082,2470.053,2020-4-30T12:18:24Z
2020-04-30T10:20:47Z,42.805,6.029,13.3041,4.60028,2470.04,2020-4-30T12:21:27Z
2020-04-30T10:23:50Z,42.805,6.029,13.2996,4.60024,2470.053,2020-4-30T12:24:31Z
2020-04-30T10:26:53Z,42.805,6.029,13.3001,4.59996,2470.053,2020-4-30T12:27:34Z
2020-04-30T10:29:56Z,42.805,6.029,13.2995,4.60040,2470.063,2020-4-30T12:30:37Z
2020-04-30T10:32:59Z,42.805,6.029,13.3010,4.60053,2470.017,2020-4-30T12:33:40Z
2020-04-30T10:36:03Z,42.805,6.029,13.2979,4.60094,2470.04,2020-4-30T12:36:43Z
2020-04-30T10:39:06Z,42.805,6.029,13.3008,4.60049,2470.04,2020-4-30T12:39:47Z
2020-04-30T10:42:09Z,42.805,6.029,13.3015,4.60028,2470.017,2020-4-30T12:42:50Z
2020-04-30T10:45:12Z,42.805,6.029,13.3028,4.60038,2470.063,2020-4-30T12:45:53Z
2020-04-30T10:48:16Z,42.805,6.029,13.3007,4.60031,2470.053,2020-4-30T12:48:56Z
2020-04-30T10:51:19Z,42.805,6.029,13.3021,4.60035,2470.053,2020-4-30T12:52:00Z
2020-04-30T10:54:22Z,42.805,6.029,13.3020,4.60047,2470.063,2020-4-30T12:55:03Z
2020-04-30T10:57:25Z,42.805,6.029,13.3019,4.60042,2470.077,2020-4-30T12:58:06Z
2020-04-30T11:00:29Z,42.805,6.029,13.3023,4.60032,2470.04,2020-4-30T13:01:09Z
2020-04-30T11:03:32Z,42.805,6.029,13.3018,4.60031,2470.077,2020-4-30T13:04:13Z
2020-04-30T11:06:35Z,42.805,6.029,13.3019,4.60036,2470.053,2020-4-30T13:07:16Z
2020-04-30T11:09:39Z,42.805,6.029,13.3033,4.60051,2470.04,2020-4-30T13:10:19Z
2020-04-30T11:12:42Z,42.805,6.029,13.3041,4.60044,2470.04,2020-4-30T13:13:23Z
2020-04-30T11:15:45Z,42.805,6.029,13.3007,4.60034,2470.077,2020-4-30T13:16:26Z
2020-04-30T11:18:48Z,42.805,6.029,13.3018,4.60033,2470.053,2020-4-30T13:19:29Z
2020-04-30T11:21:52Z,42.805,6.029,13.3024,4.60053,2470.04,2020-4-30T13:22:32Z
2020-04-30T11:24:55Z,42.805,6.029,13.3031,4.60066,2470.077,2020-4-30T13:25:36Z
2020-04-30T11:27:58Z,42.805,6.029,13.3011,4.60025,2470.063,2020-4-30T13:28:39Z
2020-04-30T11:31:02Z,42.805,6.029,13.3021,4.60040,2470.04,2020-4-30T13:31:42Z
2020-04-30T11:34:05Z,42.805,6.029,13.3019,4.60066,2470.053,2020-4-30T13:34:46Z
2020-04-30T11:37:08Z,42.805,6.029,13.3043,4.60017,2470.087,2020-4-30T13:37:49Z
2020-04-30T11:40:11Z,42.805,6.029,13.3043,4.60056,2470.077,2020-4-30T13:40:52Z
2020-04-30T11:43:15Z,42.805,6.029,13.3021,4.60057,2470.063,2020-4-30T13:43:55Z
2020-04-30T11:46:18Z,42.805,6.029,13.3020,4.60052,2470.053,2020-4-30T13:46:59Z
2020-04-30T11:49:21Z,42.805,6.029,13.3006,4.60025,2470.063,2020-4-30T13:50:02Z
2020-04-30T11:52:24Z,42.805,6.029,13.2996,4.60047,2470.04,2020-4-30T13:53:05Z
2020-04-30T11:55:28Z,42.805,6.029,13.3011,4.60021,2470.04,2020-4-30T13:56:08Z
2020-04-30T11:58:31Z,42.805,6.029,13.2988,4.60045,2470.077,2020-4-30T13:59:12Z
2020-04-30T12:01:34Z,42.805,6.029,13.3000,4.60045,2470.063,2020-4-30T14:02:15Z
2020-04-30T12:04:37Z,42.805,6.029,13.3000,4.60049,2470.063,2020-4-30T14:05:18Z
2020-04-30T12:07:41Z,42.805,6.029,13.3003,4.60035,2470.04,2020-4-30T14:08:21Z
2020-04-30T12:10:44Z,42.805,6.029,13.2983,4.60049,2470.04,2020-4-30T14:11:25Z
2020-04-30T12:13:47Z,42.805,6.029,13.2996,4.60019,2470.04,2020-4-30T14:14:28Z
2020-04-30T12:16:50Z,42.805,6.029,13.2997,4.60024,2470.063,2020-4-30T14:17:31Z
2020-04-30T12:19:54Z,42.805,6.029,13.2978,4.60011,2470.063,2020-4-30T14:20:34Z
2020-04-30T12:22:57Z,42.805,6.029,13.2995,4.60020,2470.04,2020-4-30T14:23:38Z
2020-04-30T12:26:00Z,42.805,6.029,13.2998,4.60050,2470.04,2020-4-30T14:26:41Z
2020-04-30T12:29:03Z,42.805,6.029,13.2996,4.60040,2470.04,2020-4-30T14:29:44Z
2020-04-30T12:32:07Z,42.805,6.029,13.3003,4.60026,2470.1,2020-4-30T14:32:47Z
2020-04-30T12:35:10Z,42.805,6.029,13.3009,4.60028,2470.063,2020-4-30T14:35:51Z
2020-04-30T12:38:13Z,42.805,6.029,13.3011,4.60046,2470.053,2020-4-30T14:38:54Z
2020-04-30T12:41:16Z,42.805,6.029,13.3002,4.60027,2470.017,2020-4-30T14:41:57Z
2020-04-30T12:44:20Z,42.805,6.029,13.2988,4.60026,2470.077,2020-4-30T14:45:00Z
2020-04-30T12:47:23Z,42.805,6.029,13.2984,4.60002,2470.077,2020-4-30T14:48:04Z
2020-04-30T12:50:26Z,42.805,6.029,13.2977,4.60013,2470.053,2020-4-30T14:51:07Z
2020-04-30T12:53:29Z,42.805,6.029,13.2976,4.60010,2470.053,2020-4-30T14:54:10Z
2020-04-30T12:56:33Z,42.805,6.029,13.2976,4.60014,2470.04,2020-4-30T14:57:13Z
2020-04-30T12:59:36Z,42.805,6.029,13.2978,4.60000,2470.063,2020-4-30T15:00:17Z
2020-04-30T13:02:39Z,42.805,6.029,13.2983,4.60009,2470.053,2020-4-30T15:03:20Z
2020-04-30T13:05:42Z,42.805,6.029,13.2994,4.60040,2470.063,2020-4-30T15:06:23Z
2020-04-30T13:08:46Z,42.805,6.029,13.3009,4.60032,2470.04,2020-4-30T15:09:26Z
2020-04-30T13:11:49Z,42.805,6.029,13.2990,4.60048,2470.063,2020-4-30T15:12:30Z
2020-04-30T13:14:52Z,42.805,6.029,13.2979,4.60026,2470.04,2020-4-30T15:15:33Z
2020-04-30T13:17:55Z,42.805,6.029,13.2992,4.60025,2470.017,2020-4-30T15:18:36Z
2020-04-30T13:20:59Z,42.805,6.029,13.2990,4.60016,2470.077,2020-4-30T15:21:39Z
2020-04-30T13:24:02Z,42.805,6.029,13.2978,4.59997,2470.077,2020-4-30T15:24:43Z
2020-04-30T13:27:05Z,42.805,6.029,13.2974,4.59994,2470.017,2020-4-30T15:27:46Z
2020-04-30T13:30:08Z,42.805,6.029,13.2979,4.59990,2470.04,2020-4-30T15:30:49Z
2020-04-30T13:33:12Z,42.805,6.029,13.2976,4.59992,2470.077,2020-4-30T15:33:52Z
2020-04-30T13:36:15Z,42.805,6.029,13.2975,4.60009,2470.053,2020-4-30T15:36:56Z
2020-04-30T13:39:18Z,42.805,6.029,13.2974,4.60001,2470.053,2020-4-30T15:39:59Z
2020-04-30T13:42:21Z,42.805,6.029,13.2980,4.60001,2470.077,2020-4-30T15:43:02Z
2020-04-30T13:45:25Z,42.805,6.029,13.2981,4.60003,2470.04,2020-4-30T15:46:05Z
2020-04-30T13:48:28Z,42.805,6.029,13.3000,4.60011,2470.04,2020-4-30T15:49:09Z
2020-04-30T13:51:31Z,42.805,6.029,13.2986,4.59992,2470.04,2020-4-30T15:52:12Z
2020-04-30T13:54:34Z,42.805,6.029,13.2984,4.60013,2470.03,2020-4-30T15:55:15Z
2020-04-30T13:57:38Z,42.805,6.029,13.2989,4.60026,2470.077,2020-4-30T15:58:18Z
2020-04-30T14:00:41Z,42.805,6.029,13.3000,4.60020,2470.03,2020-4-30T16:01:22Z
2020-04-30T14:03:44Z,42.805,6.029,13.2991,4.60024,2470.017,2020-4-30T16:04:25Z
2020-04-30T14:06:47Z,42.805,6.029,13.2979,4.60001,2470.017,2020-4-30T16:07:28Z
2020-04-30T14:09:50Z,42.805,6.029,13.2974,4.59994,2470.053,2020-4-30T16:10:31Z
2020-04-30T14:12:54Z,42.805,6.029,13.2975,4.59995,2470.03,2020-4-30T16:13:34Z
2020-04-30T14:15:57Z,42.805,6.029,13.2975,4.60011,2470.03,2020-4-30T16:16:38Z
2020-04-30T14:19:00Z,42.805,6.029,13.2981,4.59983,2470.053,2020-4-30T16:19:41Z
2020-04-30T14:22:04Z,42.805,6.029,13.2972,4.59991,2470.03,2020-4-30T16:22:44Z
2020-04-30T14:25:07Z,42.805,6.029,13.2976,4.60005,2470.03,2020-4-30T16:25:48Z
2020-04-30T14:28:10Z,42.805,6.029,13.2981,4.60023,2470.053,2020-4-30T16:28:51Z
2020-04-30T14:31:13Z,42.805,6.029,13.2976,4.60002,2470.04,2020-4-30T16:31:54Z
2020-04-30T14:34:17Z,42.805,6.029,13.2996,4.60043,2470.03,2020-4-30T16:34:58Z
2020-04-30T14:37:20Z,42.805,6.029,13.3008,4.60039,2469.993,2020-4-30T16:38:01Z
2020-04-30T14:40:23Z,42.805,6.029,13.3015,4.60024,2470.017,2020-4-30T16:41:04Z
2020-04-30T14:43:27Z,42.805,6.029,13.2984,4.60033,2470.007,2020-4-30T16:44:07Z
2020-04-30T14:46:30Z,42.805,6.029,13.3010,4.60052,2470.04,2020-4-30T16:47:11Z
2020-04-30T14:49:33Z,42.805,6.029,13.2990,4.60057,2469.993,2020-4-30T16:50:14Z
2020-04-30T14:52:36Z,42.805,6.029,13.3020,4.60054,2470.007,2020-4-30T16:53:17Z
2020-04-30T14:55:39Z,42.805,6.029,13.3010,4.60045,2470.03,2020-4-30T16:56:20Z
2020-04-30T14:58:43Z,42.805,6.029,13.3015,4.60004,2470.017,2020-4-30T16:59:23Z
2020-04-30T15:01:46Z,42.805,6.029,13.3013,4.60035,2470.017,2020-4-30T17:02:27Z
2020-04-30T15:04:49Z,42.805,6.029,13.2994,4.60015,2470.017,2020-4-30T17:05:30Z
2020-04-30T15:07:52Z,42.805,6.029,13.3001,4.59996,2470.053,2020-4-30T17:08:33Z
2020-04-30T15:10:56Z,42.805,6.029,13.2996,4.60019,2470.007,2020-4-30T17:11:36Z
2020-04-30T15:13:59Z,42.805,6.029,13.3004,4.60025,2469.993,2020-4-30T17:14:40Z